User: anonymous   Login
Location: Gombori
(14.9797°N, 2.9419°W)
Time: 20:53:59
(UTC+00:00)
Language:

CZ-4 R/B - Orbit

View from above orbital plane
View from above orbital plane
View from above satellite
View from above satellite

Ground track
Ground track

The orbit data is extracted from the following two-line orbital elements,

1 29507U 06046C   21295.07941266  .00000624  00000-0  52503-4 0  9994
2 29507  97.7651 320.8274 0047159 312.2696  47.4533 15.01188071819108
Epoch (UTC): 22 October 2021 01:54:21
Eccentricity: 0.0047159
inclination: 97.7651°
perigee height: 530 km
apogee height: 596 km
right ascension of ascending node: 320.8274°
argument of perigee: 312.2696°
revolutions per day: 15.01188071
mean anomaly at epoch: 47.4533°
orbit number at epoch: 81910

The dashed part of the orbit path shows where the satellite is in the earth's shadow,  

DLR